Location: ČR
(50.0000°N, 15.0000°E)
Time: 16:50:10
(UTC+01:00)

Courier 1B - Pass Details

Date: 18 February 2026
Orbit: 962 x 1208 km, 28.3° (Epoch: 16 March)

Event Time Altitude Azimuth Distance (km) Brightness Sun altitude
Rises 21:48:43 0° 234° (SW) 3,993 10.8 -41.2°
Enters shadow 21:50:10 - 227° (SW) 3,653 10.6 -41.4°
Reaches altitude 10° 21:53:21 10° 209° (SSW) 3,079 - -41.8°
Maximum altitude 21:56:34 13° 183° (S) 2,870 - -42.2°
Drops below altitude 10° 21:59:50 10° 158° (SSE) 3,123 - -42.6°
Sets 22:04:36 0° 133° (SE) 4,102 - -43.1°
